TimeMDT,TemperatureF,Dew PointF,Humidity,Sea Level PressureIn,VisibilityMPH,Wind Direction,Wind SpeedMPH,Gust SpeedMPH,PrecipitationIn,Events,Conditions,WindDirDegrees,DateUTC
12:53 AM,61.0,34.0,36,29.77,10.0,NNE,8.1,-,N/A,,Partly Cloudy,20,2013-05-26 06:53:00
1:53 AM,52.0,34.0,50,29.78,10.0,NW,4.6,-,N/A,,Clear,320,2013-05-26 07:53:00
2:53 AM,55.0,36.0,49,29.77,10.0,Calm,Calm,-,N/A,,Clear,0,2013-05-26 08:53:00
3:53 AM,55.0,36.0,49,29.78,10.0,Calm,Calm,-,N/A,,Clear,0,2013-05-26 09:53:00
4:53 AM,51.1,36.0,56,29.79,10.0,North,4.6,-,N/A,,Clear,360,2013-05-26 10:53:00
5:53 AM,48.9,36.0,61,29.81,10.0,SSE,6.9,-,N/A,,Clear,160,2013-05-26 11:53:00
6:53 AM,51.1,36.0,56,29.82,10.0,NNE,4.6,-,N/A,,Clear,30,2013-05-26 12:53:00
7:53 AM,57.9,36.0,44,29.81,10.0,ENE,6.9,-,N/A,,Clear,60,2013-05-26 13:53:00
8:53 AM,59.0,37.0,44,29.84,10.0,Variable,4.6,-,N/A,,Clear,0,2013-05-26 14:53:00
9:53 AM,63.0,36.0,37,29.83,10.0,ENE,5.8,-,N/A,,Clear,60,2013-05-26 15:53:00
10:53 AM,66.0,35.1,32,29.80,10.0,SE,5.8,-,N/A,,Clear,130,2013-05-26 16:53:00
11:53 AM,69.1,34.0,27,29.78,10.0,East,6.9,-,N/A,,Clear,90,2013-05-26 17:53:00
12:53 PM,72.0,36.0,27,29.74,10.0,ESE,8.1,-,N/A,,Clear,120,2013-05-26 18:53:00
1:53 PM,73.0,34.0,24,29.74,10.0,SSE,4.6,-,N/A,,Partly Cloudy,150,2013-05-26 19:53:00
2:53 PM,75.0,30.9,20,29.70,10.0,Variable,4.6,-,N/A,,Clear,0,2013-05-26 20:53:00
3:53 PM,77.0,26.1,15,29.68,10.0,SSW,10.4,21.9,N/A,,Clear,200,2013-05-26 21:53:00
4:53 PM,79.0,23.0,13,29.66,10.0,South,10.4,-,N/A,,Clear,170,2013-05-26 22:53:00
5:53 PM,80.1,19.0,10,29.64,10.0,South,10.4,20.7,N/A,,Clear,190,2013-05-26 23:53:00
6:15 PM,80.6,14.0,8,29.82,10.0,WSW,13.8,25.3,N/A,,Clear,250,2013-05-27 00:15:00
6:53 PM,78.1,14.0,9,29.64,10.0,West,16.1,-,N/A,,Clear,260,2013-05-27 00:53:00
7:53 PM,75.0,15.1,10,29.64,10.0,West,8.1,-,N/A,,Clear,260,2013-05-27 01:53:00
8:53 PM,66.9,25.0,21,29.68,10.0,North,6.9,-,N/A,,Clear,360,2013-05-27 02:53:00
9:53 PM,62.1,30.0,30,29.70,10.0,NNW,8.1,-,N/A,,Clear,340,2013-05-27 03:53:00
10:53 PM,62.1,27.0,26,29.70,10.0,NNW,3.5,-,N/A,,Clear,340,2013-05-27 04:53:00
11:53 PM,57.0,28.0,33,29.69,10.0,North,5.8,-,N/A,,Clear,350,2013-05-27 05:53:00